Regional Weather Roundup
Issued by NWS Newport/Morehead, NC

Home | Current Version | Previous Version | Text Only | Print | Product List | Glossary On
Versions: 1 2 3 4 5 6 7 8 9 10 11 12 13 14 15 16 17 18 19 20 21 22 23 24 25 26 27 28 29 30 31 32 33 34 35 36 37 38 39 40 41 42 43 44 45 46 47 48 49 50
000
ASUS42 KMHX 181522
RWRMHX
WEATHER ROUNDUP FOR EASTERN NORTH CAROLINA
NATIONAL WEATHER SERVICE NEWPORT/MOREHEAD CITY NC
1000 AM EST THU DEC 18 2014

NOTE: "FAIR" INDICATES FEW OR NO CLOUDS BELOW 12,000 FEET
WITH NO SIGNIFICANT WEATHER AND/OR OBSTRUCTIONS TO VISIBILITY

NCZ015>017-031-032-045>047-102-103-181600-
NORTH COAST

CITY           SKY/WX    TMP DP  RH WIND       PRES   REMARKS
EDENTON          N/A     42  31  65 N5        30.19S
ELIZABETH CITY SUNNY     46  31  55 N7        30.18R
KITTY HAWK     SUNNY     44  31  60 N8        30.15S
MANTEO         SUNNY     44  31  60 N13       30.17S

$$

NCZ045>047-081-094-103-104-181600-
CENTRAL COAST

CITY           SKY/WX    TMP DP  RH WIND       PRES   REMARKS
FRISCO         SUNNY     47  37  68 VRB7      30.16R
SWANQUARTER      N/A     45 N/A N/A N8G14     30.15S

$$

NCZ095-097-098-100-101-181600-
SOUTHERN COAST

CITY           SKY/WX    TMP DP  RH WIND       PRES   REMARKS
BEAUFORT       SUNNY     48  37  65 NE8       30.17R
CEDAR ISLAND     N/A     46 N/A N/A NE7G13    30.21S
JACKSONVILLE   SUNNY     47  32  56 NE8       30.18R
PINEY ISLAND   SUNNY     48  33  56 NE9G17    30.18R
WILMINGTON     MOSUNNY   48  32  53 NE9       30.18R


$$

NCZ011>013-027>030-043-044-078>080-089-090>093-098-181600-
COASTAL PLAIN

CITY           SKY/WX    TMP DP  RH WIND       PRES   REMARKS
AHOSKIE        SUNNY     39  28  63 N8        30.19S
CLINTON        MOSUNNY   45  32  60 NE12      30.19S
ELIZABETHTOWN  MOSUNNY   45  33  64 CALM      30.20R
GOLDSBORO      PTSUNNY   43  35  74 NE7       30.18S
GREENVILLE     PTSUNNY   41  32  70 NE3       30.21S
HAVELOCK       PTSUNNY   46  33  60 NE10      30.19R
KENANSVILLE    MOSUNNY   45  30  56 NE6       30.20S
KINSTON        PTSUNNY   43  32  65 NE5       30.20S
NEW BERN       SUNNY     46  32  58 NE10      30.20R
RICHLANDS      SUNNY     45  30  57 N10       30.19S
ROCKY MOUNT    MOSUNNY   41  30  65 NE5       30.20R
WASHINGTON     MOSUNNY   42  30  62 NE7       30.20S
WHITEVILLE     MOSUNNY   47  31  55 NE6       30.19R

$$

AMZ130-135-150-152-154-156-158-170-250-252-270-ANZ085-086-088-633-658-670-181600-
MARINE OBSERVATIONS

STATION/POSITION TIME  TEMP    WIND        PRES    WAVE   SWELL
                       AIR SEA DIR/SP/G            HT/PER HT/PER
                 (UTC) (F)     (DEG/KT/KT) (MB)    (FT/S) (FT/S)
CHESAPEAKE LIGHT 1500   40     340/ 17/ 18 1021.7
64 E VA BEACH    1500   44 54  330/ 19/ 25 1020.3    7/ 6
DUCK             1500   42 48  350/ 13/ 16 1020.5
2 E DUCK         1500      48                N/A     4/ 5
10 NE DUCK       1500      52                N/A     5/ 6
OREGON INLET     1500   45 51  350/ 13/ 17 1021.3
13E OREGON INLT  1400      53                N/A     5/ 5
HATTERAS CG      1500   45 55   10/ 11/ 13 1021.8
DIAMOND BUOY     NOT AVBL
17 S OCRACOKE    NOT AVBL
CAPE LOOKOUT     1500   47      20/ 11/ 14 1021.5
BEAUFORT LAB     1500   46 53   10/ 12/ 13 1020.6
30 SE NEW RIVER  1500   50 61   30/ 14/ 16 1021.8    3/ 4   2/ 7
5 SE WRIGHTSVLE  1500   48 55   50/ 14/ 17 1021.8
225 S CAPE HAT   1413   70 72  320/ 12/ 14 1020.0    3/ 7   3/ 7
41 SE CHARLESTON 1500   60 72  320/  6/ 10 1021.1    1/ 9   2/ 9

$$



USA.gov is the U.S. government's official web portal to all federal, state and local government web resources and services.